FW4110 Weather Reports


time (UTC)temp
C
wind
direction
speed
KPH
gust
KPH
rain 1hr
cm
rain 24hr
cm
rain mn
cm
humidity
%
barometer
mb
20260508144550 16 267 0.0 4.8 0.00 0.00 0.00 78 1015.4
20260508143110 16 239 0.0 4.8 0.00 0.00 0.00 77 1015.7
20260508141557 16 199 0.0 8.0 0.00 0.00 0.00 76 1016.0
20260508140055 17 238 3.2 12.9 0.00 0.00 0.00 74 1015.6
20260508134545 16 152 0.0 8.0 0.00 0.00 0.00 78 1015.5
20260508133041 15 268 1.6 8.0 0.00 0.00 0.00 78 1015.4
20260508131536 14 190 0.0 8.0 0.00 0.00 0.00 81 1015.1
20260508130032 13 155 1.6 6.4 0.00 0.00 0.00 83 1015.2
20260508124533 11 158 3.2 6.4 0.00 0.00 0.00 84 1015.2
20260508123030 11 178 1.6 6.4 0.00 0.00 0.00 85 1015.4
20260508121528 11 150 1.6 6.4 0.00 0.00 0.00 85 1015.4
20260508120027 -17 0.0 0.0 0.00 0.00 0.00 1015.2
20260508114526 -17 0.0 0.0 0.00 0.00 0.00 1015.1
20260508113019 -17 0.0 0.0 0.00 0.00 0.00 1015.1
20260508111516 -17 177 1.6 6.4 0.00 0.00 0.00 1015.0
20260508110026 8 153 1.6 4.8 0.00 0.00 0.00 85 1015.0
20260508104612 9 162 0.0 3.2 0.00 0.00 0.00 85 1014.9
20260508103033 9 166 1.6 6.4 0.00 0.00 0.00 84 1015.0
20260508101511 8 161 1.6 6.4 0.00 0.00 0.00 84 1015.0
20260508100009 8 140 3.2 6.4 0.00 0.00 0.00 85 1015.0
20260508094507 8 152 1.6 4.8 0.00 0.00 0.00 86 1015.2
20260508093009 8 174 0.0 6.4 0.00 0.00 0.00 86 1015.3
20260508091504 8 156 3.2 8.0 0.00 0.00 0.00 86 1015.4
20260508090003 8 154 4.8 9.7 0.00 0.00 0.00 86 1015.2
20260508084600 9 180 4.8 9.7 0.00 0.00 0.00 86 1015.3
20260508083057 10 150 3.2 8.0 0.00 0.00 0.00 85 1015.3
20260508081611 10 166 1.6 4.8 0.00 0.00 0.00 84 1015.4
20260508080050 11 161 1.6 4.8 0.00 0.00 0.00 82 1015.3
20260508074549 11 149 1.6 4.8 0.00 0.00 0.00 80 1015.6
20260508073048 11 149 1.6 4.8 0.00 0.00 0.00 80 1015.5
20260508071545 11 147 1.6 4.8 0.00 0.00 0.00 79 1015.8
20260508070041 12 143 1.6 6.4 0.00 0.00 0.00 78 1015.8
20260508064540 12 173 1.6 6.4 0.00 0.00 0.00 77 1015.9
20260508063038 12 187 1.6 6.4 0.00 0.00 0.00 77 1016.2
20260508061534 12 147 1.6 3.2 0.00 0.00 0.00 76 1016.5
20260508060041 12 144 1.6 6.4 0.00 0.00 0.00 75 1016.5
20260508054607 12 158 1.6 4.8 0.00 0.00 0.00 75 1016.7
20260508053045 12 195 0.0 8.0 0.00 0.00 0.00 75 1016.7
20260508051530 13 147 0.0 6.4 0.00 0.00 0.00 75 1016.8
20260508050028 12 191 3.2 6.4 0.00 0.00 0.00 75 1016.7
20260508044529 12 171 0.0 4.8 0.00 0.00 0.00 75 1016.8
20260508043034 12 200 1.6 4.8 0.00 0.00 0.00 77 1016.8
20260508041525 12 184 1.6 4.8 0.00 0.00 0.00 78 1016.8
20260508040031 12 167 1.6 4.8 0.00 0.00 0.00 78 1016.8
20260508034534 12 170 3.2 6.4 0.00 0.00 0.00 78 1016.9
20260508033031 12 164 0.0 3.2 0.00 0.00 0.00 76 1016.9
20260508031523 13 155 1.6 4.8 0.00 0.00 0.00 75 1016.9
20260508030023 13 165 1.6 3.2 0.00 0.00 0.00 75 1016.9
20260508024525 13 168 1.6 3.2 0.00 0.00 0.00 75 1016.9
20260508023022 13 167 1.6 3.2 0.00 0.00 0.00 76 1016.8
20260508021521 12 186 0.0 3.2 0.00 0.00 0.00 76 1016.7
20260508020021 12 188 0.0 0.0 0.00 0.00 0.00 78 1016.4
20260508014523 12 187 0.0 0.0 0.00 0.00 0.00 78 1016.3
20260508013022 13 189 0.0 0.0 0.00 0.00 0.00 77 1016.1
20260508011521 14 189 0.0 1.6 0.00 0.00 0.00 74 1015.8
20260508010030 15 187 0.0 1.6 0.00 0.00 0.00 72 1015.8
20260508004525 16 184 0.0 1.6 0.00 0.00 0.00 69 1015.6
20260508003017 18 182 0.0 1.6 0.00 0.00 0.00 63 1015.3
20260508001516 18 172 0.0 6.4 0.00 0.00 0.00 61 1015.3
20260508000016 19 234 0.0 1.6 0.00 0.00 0.00 60 1015.3
20260507234514 19 270 0.0 4.8 0.00 0.00 0.00 59 1015.5
20260507233013 19 327 3.2 9.7 0.00 0.00 0.00 58 1015.7
20260507231513 19 302 0.0 9.7 0.00 0.00 0.00 57 1015.7
20260507230010 19 280 4.8 14.5 0.00 0.00 0.00 56 1016.0
20260507224513 19 166 4.8 11.3 0.00 0.00 0.00 55 1016.1
20260507223008 19 197 0.0 6.4 0.00 0.00 0.00 58 1016.4
20260507221510 20 268 4.8 22.5 0.00 0.00 0.00 56 1016.4
20260507220005 20 7 8.0 17.7 0.00 0.00 0.00 56 1016.3
20260507214504 20 344 4.8 20.9 0.00 0.00 0.00 55 1016.3
20260507213003 20 235 1.6 11.3 0.00 0.00 0.00 57 1016.4
20260507211606 19 320 0.0 16.1 0.00 0.00 0.00 57 1016.6
20260507210103 19 298 6.4 14.5 0.00 0.00 0.00 58 1016.8
20260507204554 18 360 8.0 14.5 0.00 0.00 0.00 57 1017.1
20260507203058 18 263 4.8 12.9 0.00 0.00 0.00 56 1017.5
20260507201552 18 287 4.8 12.9 0.00 0.00 0.00 56 1017.5
20260507200051 18 340 3.2 9.7 0.00 0.00 0.00 55 1017.7
20260507194550 18 350 3.2 17.7 0.00 0.00 0.00 55 1017.7
20260507193047 18 261 3.2 11.3 0.00 0.00 0.00 55 1017.8
20260507191546 18 10 8.0 19.3 0.00 0.00 0.00 56 1017.9
20260507190044 18 308 0.0 17.7 0.00 0.00 0.00 57 1018.0
20260507184544 18 358 0.0 14.5 0.00 0.00 0.00 57 1018.1
20260507183048 18 356 1.6 14.5 0.00 0.00 0.00 54 1018.4
20260507181542 18 282 1.6 12.9 0.00 0.00 0.00 55 1018.4
20260507180045 18 259 4.8 14.5 0.00 0.00 0.00 56 1018.7
20260507174535 17 9 4.8 16.1 0.00 0.00 0.00 55 1019.0
20260507173034 17 232 1.6 17.7 0.00 0.00 0.00 56 1019.1
20260507171531 17 237 1.6 12.9 0.00 0.00 0.00 58 1019.1
20260507170028 17 107 4.8 14.5 0.00 0.00 0.00 59 1019.4
20260507164528 17 206 3.2 16.1 0.00 0.00 0.00 59 1019.9
20260507163024 17 286 4.8 12.9 0.00 0.00 0.00 59 1020.0
20260507161532 16 275 3.2 12.9 0.00 0.00 0.00 59 1020.1
20260507160036 16 341 3.2 16.1 0.00 0.00 0.00 59 1020.4
20260507154519 16 261 4.8 12.9 0.00 0.00 0.00 60 1020.3
20260507153016 15 327 3.2 12.9 0.00 0.00 0.00 65 1020.6
20260507151515 15 272 1.6 9.7 0.00 0.00 0.00 67 1020.4
20260507150015 15 314 4.8 11.3 0.00 0.00 0.00 69 1020.7